Погода в Терезине

Бразилия     5°05′44″S   42°48′16″W
темп.,
°C
ветер,
м/с
пор.,
м/с
влажн.,
%
обл.,
%
осадки,
мм/ч
давл.,
гПа
погр.,
м
27 февраля, сб
сб2700:00+23с2892100 0.2 1011302
03:00+23ссв1493100 1.8 1009149
06:00+23ссз0093100 2.1 101172
09:00+25в128796 2.5 1012244
12:00+30всв126945 2.8 1011964
15:00+31з016170 6.1 10071031
18:00+26ю018398 0.6 1008141
21:00+24св269099 9.1 1010196
28 февраля, вс
вс2800:00+23с1493100 4.1 1010156
03:00+23вюв1195100 6.1 100890
06:00+23ююз1197100 5.5 101098
09:00+23юз1394100 8.1 1011294
12:00+29ю2367100 0.8 1010826
15:00+29ююз2267100 0.9 1006798
18:00+26ююв248482 0.8 1006216
21:00+24ююв129191 2.6 1008104
1 марта, пн
пн100:00+24ссв019199 0.1 100869
03:00+22ссз129679 0.1 100694
06:00+22св019691 0.0 100868
09:00+29в017173 1.4 1009598
12:00+29всв247537 3.3 1008906
15:00+29всв237868 7.4 1005778
18:00+26в2487100 4.4 1005168
21:00+24св1189100 5.5 100834
2 марта, вт
вт200:00+23с1193100 1.6 100856
03:00+22с149597 1.7 1007131
06:00+22всв149693 0.0 1009159
09:00+27вюв257082 0.0 1011744
12:00+32в355233 0.0 10091524
15:00+30всв357528 1.8 1006863
18:00+26св128497 3.1 1008203
21:00+24с249098 6.1 1010163
3 марта, ср
ср300:00+23с1292100 1.8 1011109
03:00+22с1294100 3.6 101076
06:00+22св119576 0.0 101176
09:00+27в267465 0.0 1013763
12:00+32в355091 0.0 10121592
15:00+33в254877 0.1 10081991
18:00+27всв137080 0.2 1009292
21:00+25ссв117985 0.2 101158